Location: Arbon
(43.0005°N, 0.7472°E)
Time: 05:07:21
(UTC+00:00)

Vanguard 2 Rocket - Pass Details

Date: 22 June 2021
Orbit: 554 x 3325 km, 32.9° (Epoch: 26 July)

Event Time Altitude Azimuth Distance (km) Brightness Sun altitude
Rises 00:35:11 0° 277° (W) 6,549 11.3 -23.0°
Reaches altitude 10° 00:41:11 10° 266° (W) 5,055 10.5 -22.9°
Enters shadow 00:49:45 23° 229° (SW) 3,284 9.3 -22.5°
